Orbital Elements at Epoch 2459200.5 (2020-Dec-17.0) TDB
Reference: JPL 28 (heliocentric ecliptic J2000)
Element | Value | Uncertainty (1-sigma) | Units |
e | .1485984841252422 | 2.7148e-08 | |
a | 2.453958743234874 | 8.3486e-09 | au |
q | 2.089304193884287 | 6.7746e-08 | au |
i | 7.456963443549821 | 6.4561e-06 | deg |
node | 355.002304265216 | 2.3715e-05 | deg |
peri | 86.37346183993353 | 3.653e-05 | deg |
M | 61.01982508046046 | 2.5074e-05 | deg |
tp | 2458962.505034656024 (2020-Apr-23.00503466) | 9.7652e-05 | TDB |
period | 1404.104115520759 3.84 | 7.1653e-06 1.962e-08 | d yr |
n | .2563912433704974 | 1.3084e-09 | deg/d |
Q | 2.81861329258546 | 9.5892e-09 | au |
|
| | Orbit Determination Parameters
Additional Information
|